Tracking 19224 objects as of 22-Jul-2018
HD Live streaming from Space Station
objects crossing your sky now

OSCAR 27

Track OSCAR 27 now!
10-day predictions
OSCAR 27 is classified as:


NORAD ID: 18361
Int'l Code: 1987-080A
Perigee: 1,020.9 km
Apogee: 1,178.8 km
Inclination: 90.3 °
Period: 107.1 minutes
Semi major axis: 7470 km
RCS: 1.5699 m2 (large)
Launch date: September 16, 1987
Source: United States (US)
Launch site: AIR FORCE WESTERN TEST RANGE (AFWTR)
aabbcc
Your satellite tracking list
Your tracking list is empty




NASA's NSSDC Master Catalog

Two Line Element Set (TLE):
1 18361U 87080A   18202.41814970 +.00000030 +00000-0 +34549-4 0  9991
2 18361 090.3240 348.5580 0105713 038.9343 321.9356 13.44458689512569
Source of the keplerian elements: AFSPC